DELTA 1 DEB, 42636

Orbit data source: Space-Track

DELTA 1 DEB, 42636 is space debris in SSO originally from a launch on Thu, 12 Jun 1975 UTC launched from the Air Force Western Test Range (AFWTR). Debris objects in space refer to the collection of defunct objects orbiting the Earth. Examples of debris include non-operational satellites, rocket bodies, and fragments generated from explosions, collisions, or faulty payload assembly.

Loading next visibility...
Identifier
42636, 1975-052LV
Orbit
SSO
Country
Flag of USUS
Related business
Manufacturer
Unknown
Mission
Spacecraft
Bus & Motor
Unknown
Mass
Unknown
Launch date (UTC)
1975-06-12 (50 years ago)
Launch vehicle
Unknown
Launch site
Air Force Western Test Range (AFWTR)
Object type
Payload
Rocket body
Debris
Shape & HBR
Unknown shape, 0.1 m
Radar Cross Section
Small (<0.1 m²)

Expand to show TLE details & history
Last TLE update: 2 days ago

TLE from 2 days ago
0 DELTA 1 DEB
1 42636U 75052LV  25307.80413646  .00000288  00000-0  75593-3 0  9999
2 42636  99.6815 147.3595 0131616 338.9778  39.2124 13.22112473576182
Epoch: 2025-11-03T19:17Z
TLE epoch observation values (Epoch: 2025-11-03T19:17:57.390Z)
Latitude
18.8711°
Longitude
171.24427°
Altitude
1,102.4 km
Speed
7.34 km/s
True Right ascension
09h 36m 08s
True Declination
18° 46' 15"
Sunlit
Object was in daylight at epoch
Visualization orbit readout
Latitude
Unknown
Longitude
Unknown
Altitude
Unknown
Speed
Unknown
Apparent Right ascension
Unknown
Apparent Declination
Unknown
Sunlit
N/A
Visualization observer readout
Local Sidereal Time
06:50:04
Azimuth
Unknown
Elevation
Unknown
Doppler factor
Unknown
Orbital elements
Apogee altitude
1,273.397 km
Perigee altitude
1,074.601 km
Semi-major axis
7,552.136 km
Eccentricity
0.01316
Inclination
99.6815°
RAAN
147.3595°
Arg. of periapsis
338.9778°
True anomaly
40.17814°
Mean anomaly
39.2124°
Eccentric anomaly
39.69404°
Mean motion
3.30703 °/min
Orbital period
108.86 mins
BSTAR
0.00075593
Loading maneuver chart data...
Computing Atmospheric mass density...

Documentation

Showing up to 5 results
|